Philadelphia, PA

11:05 AM EDT on October 19, 2017 (GMT -0400)
Philadelphia International

Weather History for KPHL - January, 2014

Change the Weather History Date:

Friday, January 10, 2014

  Actual Average Record
Temperature  
Mean Temperature 32 °F 33 °F  
Max Temperature 37 °F 40 °F 65 °F (2016)
Min Temperature 27 °F 26 °F -5 °F (1875)
Degree Days  
Heating Degree Days 33 32  
Month to date heating degree days 391 318  
Since 1 July heating degree days 2004 1988  
Cooling Degree Days 0 0  
Month to date cooling degree days 0 0  
Year to date cooling degree days 0 0  
Moisture  
Dew Point 28 °F    
Average Humidity 78    
Maximum Humidity 92    
Minimum Humidity 63    
Precipitation  
Precipitation 0.42 in 0.10 in 1.28 in (1881)
Month to date precipitation 1.65 0.96  
Year to date precipitation 1.65 0.96  
Snow  
Snow T in 0.20 in 6.60 in (1965)
Month to date snowfall 9.0 1.7  
Since 1 July snowfall 20.2 5.4  
Snow Depth 0.00 in    
Sea Level Pressure  
Sea Level Pressure 30.43 in    
Wind  
Wind Speed 4 mph (ENE)    
Max Wind Speed 9 mph    
Max Gust Speed 15 mph    
Visibility 4 miles    
Events Rain , Snow    
T = Trace of Precipitation, MM = Missing Value Source: NWS Daily Summary

Daily Weather History Graph

Daily Weather History Graph

Search for Another Location

Airport or City:

Trip Planner

Search our weather history database for the weather conditions in past years. The results will help you decide how hot, cold, wet, or windy it might be!

Date:

Astronomy

Jan. 10, 2014 Rise Set
Actual Time 7:22 AM EST 4:55 PM EST
Civil Twilight 6:52 AM EST 5:25 PM EST
Nautical Twilight 6:18 AM EST 5:58 PM EST
Astronomical Twilight 5:46 AM EST 6:31 PM EST
Moon 12:57 PM EST (1/10) 2:27 AM EST (1/10)
Length of Visible Light 10h 33m
Length of Day
9h 33m
Waxing Gibbous, 75% of the Moon is Illuminated
Jan 10
Waxing Gibbous
Jan 15
Full
Jan 24
Last Quarter
Jan 30
New
Feb 6
First Quarter

Hourly Weather History & Observations

Time (EST) Temp. Windchill Dew Point Humidity Pressure Visibility Wind Dir Wind Speed Gust Speed Precip Events Conditions
12:54 AM 28.9 °F - 19.0 °F 67% 30.57 in 10.0 mi Calm Calm - N/A   Overcast
1:54 AM 28.9 °F - 19.0 °F 67% 30.57 in 10.0 mi Calm Calm - N/A   Overcast
2:54 AM 30.0 °F 26.5 °F 19.9 °F 66% 30.55 in 10.0 mi NE 3.5 mph - N/A   Overcast
3:31 AM 30.2 °F 24.3 °F 19.4 °F 64% 30.53 in 10.0 mi ENE 5.8 mph - N/A   Overcast
3:54 AM 30.9 °F 25.2 °F 19.9 °F 64% 30.52 in 10.0 mi NE 5.8 mph - N/A   Overcast
4:52 AM 32.0 °F 27.5 °F 21.2 °F 64% 30.51 in 8.0 mi NE 4.6 mph - 0.00 in Snow Light Snow
4:54 AM 32.0 °F 27.5 °F 21.0 °F 64% 30.51 in 8.0 mi ENE 4.6 mph - 0.00 in Snow Light Snow
5:20 AM 32.0 °F 27.5 °F 21.2 °F 64% 30.50 in 9.0 mi East 4.6 mph - 0.00 in Snow Light Snow
5:45 AM 30.2 °F 25.4 °F 21.2 °F 69% 30.49 in 10.0 mi ENE 4.6 mph - 0.00 in   Overcast
5:54 AM 30.9 °F 25.2 °F 21.0 °F 67% 30.49 in 10.0 mi ENE 5.8 mph - 0.00 in   Overcast
6:03 AM 30.2 °F 26.7 °F 21.2 °F 69% 30.49 in 8.0 mi East 3.5 mph - 0.00 in Snow Light Snow
6:27 AM 30.2 °F 24.3 °F 23.0 °F 75% 30.48 in 8.0 mi East 5.8 mph - 0.00 in Rain , Snow Light Freezing Rain
6:40 AM 30.2 °F 23.4 °F 23.0 °F 75% 30.48 in 10.0 mi East 6.9 mph - 0.00 in   Overcast
6:54 AM 30.9 °F 26.2 °F 23.0 °F 72% 30.48 in 10.0 mi East 4.6 mph - 0.00 in   Overcast
6:56 AM 30.2 °F 25.4 °F 23.0 °F 75% 30.48 in 10.0 mi East 4.6 mph - 0.00 in Rain Light Freezing Rain
7:03 AM 30.2 °F 24.3 °F 24.8 °F 80% 30.48 in 8.0 mi East 5.8 mph - 0.00 in Rain Light Freezing Rain
7:12 AM 30.2 °F 23.4 °F 24.8 °F 80% 30.47 in 5.0 mi East 6.9 mph - 0.01 in Rain Light Freezing Rain
7:54 AM 30.9 °F 27.5 °F 25.0 °F 79% 30.49 in 5.0 mi NNE 3.5 mph - 0.03 in Rain Light Freezing Rain
8:07 AM 30.2 °F 26.7 °F 24.8 °F 80% 30.50 in 3.0 mi NNE 3.5 mph - 0.02 in Rain Light Freezing Rain
8:15 AM 32.0 °F 26.4 °F 26.6 °F 80% 30.49 in 3.0 mi NNE 5.8 mph - 0.03 in Rain Light Freezing Rain
8:20 AM 32.0 °F 26.4 °F 26.6 °F 80% 30.50 in 3.0 mi Variable 5.8 mph - 0.04 in Rain Light Freezing Rain
8:30 AM 32.0 °F 27.5 °F 26.6 °F 80% 30.50 in 3.0 mi NE 4.6 mph - 0.05 in Rain Light Freezing Rain
8:35 AM 32.0 °F 28.7 °F 26.6 °F 80% 30.50 in 3.0 mi NNE 3.5 mph - 0.06 in Rain Light Freezing Rain
8:54 AM 32.0 °F 28.7 °F 28.0 °F 85% 30.50 in 3.0 mi NE 3.5 mph - 0.08 in Rain Light Freezing Rain
9:03 AM 32.0 °F - 28.4 °F 87% 30.50 in 2.5 mi Calm Calm - 0.01 in Rain Light Freezing Rain
9:32 AM 32.0 °F 26.4 °F 28.4 °F 87% 30.50 in 1.5 mi ENE 5.8 mph - 0.04 in Rain Light Freezing Rain
9:54 AM 32.0 °F 28.7 °F 28.0 °F 85% 30.49 in 1.8 mi Variable 3.5 mph - 0.07 in Rain Light Freezing Rain
10:18 AM 32.0 °F 27.5 °F 28.4 °F 87% 30.49 in 2.0 mi ENE 4.6 mph - 0.02 in Rain Light Freezing Rain
10:54 AM 33.1 °F 30.0 °F 28.9 °F 85% 30.46 in 2.0 mi East 3.5 mph - 0.06 in Rain Light Freezing Rain
11:04 AM 33.8 °F 30.8 °F 28.4 °F 81% 30.45 in 1.8 mi ENE 3.5 mph - 0.00 in Rain Light Rain
11:10 AM 33.8 °F 28.6 °F 28.4 °F 81% 30.45 in 2.0 mi East 5.8 mph - 0.01 in Rain Light Rain
11:36 AM 33.8 °F 30.8 °F 30.2 °F 87% 30.43 in 1.5 mi East 3.5 mph - 0.01 in   Overcast
11:54 AM 33.1 °F - 30.0 °F 89% 30.42 in 1.5 mi Calm Calm - 0.01 in   Overcast
12:16 PM 33.8 °F 29.6 °F 30.2 °F 87% 30.40 in 1.5 mi NNE 4.6 mph - N/A   Overcast
12:54 PM 35.1 °F 31.0 °F 32.0 °F 89% 30.39 in 1.5 mi Variable 4.6 mph - N/A   Overcast
1:54 PM 36.0 °F 33.3 °F 33.1 °F 89% 30.38 in 1.8 mi NE 3.5 mph - N/A   Overcast
2:11 PM 35.6 °F 31.7 °F 32.0 °F 87% 30.37 in 1.5 mi NNE 4.6 mph - N/A   Overcast
2:54 PM 36.0 °F 33.3 °F 33.1 °F 89% 30.37 in 1.8 mi East 3.5 mph - N/A   Overcast
3:19 PM 35.6 °F 32.8 °F 33.8 °F 93% 30.36 in 1.8 mi East 3.5 mph - N/A   Overcast
3:54 PM 36.0 °F 32.1 °F 33.1 °F 89% 30.35 in 1.2 mi East 4.6 mph - 0.00 in Rain Light Rain
4:54 PM 36.0 °F 32.1 °F 33.1 °F 89% 30.34 in 1.2 mi ENE 4.6 mph - 0.00 in   Overcast
5:27 PM 35.6 °F 32.8 °F 33.8 °F 93% 30.34 in 1.0 mi ENE 3.5 mph - 0.00 in Rain Light Rain
5:44 PM 35.6 °F 29.9 °F 33.8 °F 93% 30.34 in 0.8 mi NE 6.9 mph - 0.02 in Rain Light Rain
5:54 PM 35.1 °F 30.1 °F 33.1 °F 92% 30.33 in 0.8 mi NE 5.8 mph - 0.02 in Rain Light Rain
6:13 PM 35.6 °F 30.7 °F 33.8 °F 93% 30.33 in 1.0 mi NE 5.8 mph - 0.01 in Rain Light Rain
6:54 PM 36.0 °F 31.1 °F 33.1 °F 89% 30.33 in 1.2 mi NE 5.8 mph - 0.03 in Rain Light Rain
7:54 PM 36.0 °F 33.3 °F 33.1 °F 89% 30.32 in 1.5 mi NE 3.5 mph - 0.03 in Rain Light Rain
8:54 PM 36.0 °F 32.1 °F 33.1 °F 89% 30.29 in 1.0 mi NE 4.6 mph - 0.02 in Rain Light Rain
9:54 PM 36.0 °F 33.3 °F 34.0 °F 93% 30.26 in 1.5 mi East 3.5 mph - 0.04 in   Overcast
10:54 PM 36.0 °F 32.1 °F 33.1 °F 89% 30.22 in 1.5 mi NE 4.6 mph - 0.02 in Rain Light Rain
11:43 PM 37.4 °F 33.8 °F 33.8 °F 87% 30.19 in 1.5 mi NE 4.6 mph - 0.01 in   Overcast
11:54 PM 37.0 °F 33.3 °F 34.0 °F 89% 30.18 in 1.5 mi NE 4.6 mph - 0.01 in   Overcast